FW9789 Weather Reports


time (UTC)temp
C
wind
direction
speed
KPH
gust
KPH
rain 1hr
cm
rain 24hr
cm
rain mn
cm
humidity
%
barometer
mb
20260906094006 10 45 9.7 32.2 0.00 3.66 3.66 17 1014.9
20260906092006 10 0 11.3 24.1 0.00 3.66 3.66 17 1014.8
20260906085007 10 135 14.5 29.0 0.00 3.66 3.66 17 1014.4
20260906084006 10 135 11.3 29.0 0.00 3.66 3.66 17 1014.5
20260906083006 10 90 11.3 33.8 0.00 3.66 3.66 17 1014.4
20260906082006 10 90 14.5 33.8 0.00 3.66 3.66 17 1014.3
20260906074006 9 90 11.3 33.8 0.00 3.66 3.66 17 1013.7
20260906072006 9 90 12.9 27.4 0.00 3.66 3.66 17 1013.4
20260906071006 9 135 11.3 32.2 0.00 3.66 3.66 17 1013.2
20260906065006 10 135 11.3 27.4 0.00 3.66 3.66 17 1013.0
20260906064005 9 90 11.3 32.2 0.00 3.66 3.66 17 1012.7
20260906062007 9 90 12.9 27.4 0.00 3.66 3.66 17 1012.5
20260906055006 9 90 9.7 27.4 0.00 3.66 3.66 17 1012.2
20260906054006 9 135 9.7 27.4 0.00 3.66 3.66 17 1012.2
20260906052006 9 135 11.3 27.4 0.00 3.66 3.66 17 1012.0
20260906051007 9 45 14.5 27.4 0.00 3.66 3.66 17 1011.8
20260906045006 9 90 11.3 27.4 0.00 3.66 3.66 17 1011.9
20260906044006 9 90 16.1 29.0 0.00 3.66 3.66 17 1011.6
20260906043006 9 90 14.5 27.4 0.00 3.66 3.66 17 1011.8
20260906042006 9 90 11.3 27.4 0.00 3.66 3.66 17 1011.7
20260906041006 9 90 11.3 25.7 0.00 3.66 3.66 17 1011.4
20260906035005 9 45 8.0 25.7 0.00 3.66 3.66 17 1011.1
20260906034006 9 90 8.0 29.0 0.00 3.66 3.66 17 1011.0
20260906033006 9 90 9.7 33.8 0.00 3.66 3.66 17 1010.9
20260906032006 9 338 14.5 32.2 0.00 3.66 3.66 17 1011.0
20260906031006 10 90 14.5 27.4 0.00 3.66 3.66 17 1010.9
20260906025006 10 135 12.9 29.0 0.00 3.66 3.66 17 1010.7
20260906024005 10 135 12.9 27.4 0.00 3.66 3.66 17 1010.5
20260906023006 10 90 14.5 35.4 0.00 3.66 3.66 17 1010.3
20260906022005 10 180 9.7 27.4 0.00 3.66 3.66 17 1010.2
20260906021006 10 90 9.7 24.1 0.00 3.66 3.66 17 1010.2
20260906015006 10 90 9.7 27.4 0.00 3.66 3.66 17 1010.1
20260906014006 10 45 11.3 29.0 0.00 3.66 3.66 17 1010.1
20260906013006 10 158 14.5 27.4 0.00 3.66 3.66 17 1010.0
20260906004006 11 45 11.3 25.7 0.00 3.66 3.66 17 1009.5
20260906003007 11 90 12.9 24.1 0.00 3.66 3.66 17 1009.7
20260906002005 11 45 9.7 24.1 0.00 3.66 3.66 17 1009.5
20260906001007 11 90 11.3 24.1 0.00 3.66 3.66 17 1009.3
20260905235006 11 45 9.7 29.0 0.00 3.66 3.66 17 1009.0
20260905234006 11 90 9.7 22.5 0.00 3.66 3.66 17 1009.3
20260905233006 11 135 14.5 25.7 0.00 3.66 3.66 17 1009.2
20260905221007 11 90 6.4 16.1 0.00 3.66 3.66 17 1008.6
20260905215006 11 135 9.7 27.4 0.00 3.66 3.66 17 1008.6
20260905214006 11 90 9.7 25.7 0.00 3.66 3.66 17 1008.5
20260905213006 11 45 12.9 22.5 0.00 3.66 3.66 17 1008.4
20260905212005 11 90 8.0 22.5 0.00 3.66 3.66 17 1008.3
20260905211006 11 45 8.0 25.7 0.00 3.66 3.66 17 1008.4
20260905205006 11 90 8.0 20.9 0.00 3.66 3.66 17 1008.1
20260905204006 11 90 11.3 24.1 0.00 3.66 3.66 17 1008.3
20260905202007 11 90 11.3 24.1 0.00 3.66 3.66 17 1008.0
20260905195006 11 45 11.3 27.4 0.00 3.66 3.66 17 1007.7
20260905194005 11 90 8.0 25.7 0.00 3.66 3.66 17 1007.8
20260905192005 11 90 9.7 24.1 0.00 3.66 3.66 17 1007.5
20260905191005 11 90 12.9 29.0 0.00 3.66 3.66 17 1007.7
20260905184005 11 90 4.8 29.0 0.00 3.66 3.66 17 1007.3
20260905183006 11 90 9.7 25.7 0.00 3.66 3.66 17 1007.5
20260905182007 11 90 9.7 24.1 0.00 3.66 3.66 17 1007.3
20260905175006 11 45 11.3 37.0 0.00 3.66 3.66 17 1007.1
20260905174006 11 135 12.9 37.0 0.00 3.66 3.66 17 1007.0
20260905173006 11 90 9.7 24.1 0.00 3.66 3.66 17 1006.9
20260905165005 11 45 4.8 24.1 0.00 3.66 3.66 17 1006.5
20260905164005 11 90 9.7 29.0 0.00 3.66 3.66 17 1006.2
20260905163005 11 45 9.7 20.9 0.00 3.66 3.66 17 1006.3
20260905162006 11 90 9.7 20.9 0.00 3.66 3.66 17 1006.1
20260905161006 11 225 9.7 24.1 0.00 3.66 3.66 17 1005.9
20260905141006 11 135 8.0 20.9 0.00 3.66 3.66 17 1004.8
20260905135005 11 45 11.3 27.4 0.00 3.66 3.66 17 1004.6
20260905134005 11 135 9.7 27.4 0.00 3.66 3.66 17 1004.6
20260905133005 11 90 12.9 29.0 0.00 3.66 3.66 17 1004.5
20260905132005 11 90 9.7 24.1 0.00 3.66 3.66 17 1004.3
20260905131005 11 90 11.3 20.9 0.00 3.66 3.66 17 1004.5
20260905125005 11 0 11.3 32.2 0.00 3.66 3.66 17 1004.2
20260905124006 11 135 11.3 27.4 0.00 3.66 3.66 17 1004.1
20260905123006 11 90 12.9 27.4 0.00 3.66 3.66 17 1004.1
20260905122006 11 90 11.3 24.1 0.00 3.66 3.66 17 1003.9
20260905121006 11 90 8.0 16.1 0.03 3.66 3.66 17 1004.0
20260905115006 11 90 8.0 25.7 0.03 3.66 3.66 17 1003.7
20260905114006 11 45 11.3 29.0 0.03 3.66 3.66 17 1003.6
20260905113006 11 45 8.0 32.2 0.03 3.66 3.66 17 1003.5
20260905112005 11 90 11.3 24.1 0.05 3.66 3.66 17 1003.3
20260905111006 11 90 11.3 27.4 0.03 3.66 3.66 17 1003.4
20260905105006 11 90 14.5 33.8 0.03 3.66 3.66 17 1003.0
20260905104005 11 90 12.9 29.0 0.03 3.66 3.66 17 1002.9
20260905103006 11 90 11.3 29.0 0.03 3.66 3.66 17 1002.7
20260905102005 11 45 9.7 24.1 0.00 3.66 3.66 17 1002.7
20260905101006 11 90 8.0 27.4 0.00 3.66 3.66 17 1002.6